EW3774 Weather Reports


time (UTC)temp
C
wind
direction
speed
KPH
gust
KPH
rain 1hr
cm
rain 24hr
cm
rain mn
cm
humidity
%
barometer
mb
20260510005926 -67 170 0.0 0.0 0.00 0.46 0.46
20260510005433 -67 170 0.0 0.0 0.00 0.46 0.46
20260510004940 -67 170 0.0 0.0 0.00 0.46 0.46
20260510004430 -67 170 0.0 0.0 0.00 0.46 0.46
20260510003936 -67 170 0.0 0.0 0.00 0.46 0.46
20260510003442 -67 170 0.0 0.0 0.00 0.46 0.46
20260510002929 -67 170 0.0 0.0 0.00 0.46 0.46
20260510002435 -67 170 0.0 0.0 0.00 0.46 0.46
20260510001944 -67 170 0.0 0.0 0.00 0.46 0.46
20260510001452 -67 170 0.0 1.6 0.00 0.46 0.46
20260510000937 -67 170 0.0 1.6 0.00 0.46 0.46
20260510000443 -67 170 0.0 8.0 0.00 0.46 0.46
20260509235931 -67 181 1.6 8.0 0.00 0.46 0.46
20260509235457 -67 165 1.6 8.0 0.00 0.46 0.46
20260509234924 -67 168 0.0 4.8 0.00 0.46 0.46
20260509234431 -67 166 0.0 0.0 0.00 0.46 0.46
20260509233959 -67 174 0.0 3.2 0.00 0.46 0.46
20260509233426 -67 174 0.0 3.2 0.00 0.46 0.46
20260509232930 -67 164 0.0 4.8 0.00 0.46 0.46
20260509232439 -67 162 0.0 8.0 0.00 0.46 0.46
20260509231927 -67 226 0.0 8.0 0.00 0.46 0.46
20260509231436 -67 164 0.0 0.0 0.00 0.46 0.46
20260509230943 -67 179 0.0 11.3 0.00 0.46 0.46
20260509230432 -67 199 3.2 12.9 0.00 0.46 0.46
20260509225939 -67 217 3.2 6.4 0.00 0.46 0.46
20260509225427 -67 222 0.0 6.4 0.00 0.46 0.46
20260509224935 -67 218 1.6 6.4 0.00 0.46 0.46
20260509224443 -67 228 3.2 16.1 0.00 0.46 0.46
20260509223930 -67 212 3.2 16.1 0.00 0.46 0.46
20260509223438 -67 223 1.6 6.4 0.00 0.46 0.46
20260509222928 -67 218 1.6 9.7 0.00 0.46 0.46
20260509222451 -67 175 0.0 9.7 0.00 0.46 0.46
20260509221937 -67 161 0.0 8.0 0.00 0.46 0.46
20260509221425 -67 174 3.2 8.0 0.00 0.46 0.46
20260509220933 -67 208 3.2 6.4 0.00 0.46 0.46
20260509220440 -67 218 0.0 6.4 0.00 0.46 0.46
20260509215929 -67 188 0.0 6.4 0.00 0.46 0.46
20260509215434 -67 172 1.6 8.0 0.00 0.46 0.46
20260509214940 -67 195 0.0 3.2 0.00 0.46 0.46
20260509214429 -67 196 0.0 3.2 0.00 0.46 0.46
20260509213933 -67 159 0.0 8.0 0.00 0.46 0.46
20260509213421 -67 164 1.6 8.0 0.00 0.46 0.46
20260509212955 -67 231 1.6 8.0 0.00 0.46 0.46
20260509212422 -67 180 0.0 8.0 0.00 0.46 0.46
20260509211956 -67 233 1.6 4.8 0.00 0.46 0.46
20260509211445 -67 169 0.0 8.0 0.00 0.46 0.46
20260509210947 -67 204 3.2 8.0 0.00 0.46 0.46
20260509210433 -67 174 1.6 8.0 0.00 0.46 0.46
20260509205941 -67 159 0.0 8.0 0.00 0.46 0.46
20260509205449 -67 170 0.0 9.7 0.00 0.46 0.46
20260509204932 -67 162 0.0 9.7 0.00 0.46 0.46
20260509204420 -67 183 0.0 8.0 0.00 0.46 0.46
20260509203956 -67 199 3.2 8.0 0.00 0.46 0.46
20260509203421 -67 237 3.2 8.0 0.00 0.46 0.46
20260509202954 -67 213 0.0 6.4 0.00 0.46 0.46
20260509202441 -67 183 0.0 6.4 0.00 0.46 0.46
20260509201928 -67 184 0.0 9.7 0.00 0.46 0.46
20260509201505 -67 213 3.2 9.7 0.00 0.46 0.46
20260509200929 -67 185 0.0 6.4 0.00 0.46 0.46
20260509200432 -67 234 1.6 11.3 0.00 0.46 0.46
20260509195940 -67 191 1.6 11.3 0.00 0.46 0.46
20260509195428 -67 177 1.6 8.0 0.00 0.46 0.46
20260509194954 -67 174 0.0 8.0 0.00 0.46 0.46
20260509194501 -67 214 1.6 8.0 0.00 0.46 0.46
20260509193928 -67 162 0.0 3.2 0.00 0.46 0.46
20260509193435 -67 158 0.0 6.4 0.00 0.46 0.46
20260509192922 -67 168 0.0 4.8 0.00 0.46 0.46
20260509192457 -67 170 0.0 6.4 0.00 0.46 0.46
20260509191921 -67 235 1.6 6.4 0.00 0.46 0.46
20260509191457 -67 206 0.0 6.4 0.00 0.46 0.46
20260509190942 -67 210 1.6 6.4 0.00 0.46 0.46
20260509190428 -67 180 0.0 1.6 0.00 0.46 0.46
20260509185949 -67 188 0.0 1.6 0.00 0.46 0.46
20260509185435 -67 187 0.0 1.6 0.00 0.46 0.46
20260509184923 -67 189 0.0 0.0 0.00 0.46 0.46
20260509184432 -67 189 0.0 8.0 0.00 0.46 0.46
20260509183938 -67 226 1.6 8.0 0.00 0.46 0.46
20260509183427 -67 226 0.0 4.8 0.00 0.46 0.46
20260509182951 -67 229 0.0 6.4 0.00 0.46 0.46
20260509182437 -67 229 1.6 6.4 0.00 0.46 0.46
20260509181944 -67 177 0.0 0.0 0.00 0.46 0.46
20260509181432 -67 179 0.0 0.0 0.03 0.46 0.46
20260509180939 -67 179 0.0 3.2 0.03 0.46 0.46
20260509180447 -67 214 0.0 4.8 0.03 0.46 0.46
20260509175933 -67 177 0.0 4.8 0.03 0.46 0.46
20260509175441 -67 169 0.0 1.6 0.03 0.46 0.46
20260509174929 -67 164 0.0 4.8 0.03 0.46 0.46
20260509174437 -67 214 0.0 4.8 0.03 0.46 0.46
20260509173939 -67 196 0.0 3.2 0.03 0.46 0.46
20260509173426 -67 202 0.0 3.2 0.03 0.46 0.46
20260509172933 -67 217 0.0 4.8 0.03 0.46 0.46
20260509172500 -67 233 0.0 4.8 0.03 0.46 0.46
20260509171946 -67 230 0.0 4.8 0.03 0.46 0.46
20260509171431 -67 222 0.0 0.0 0.00 0.43 0.43
20260509170938 -67 222 0.0 0.0 0.00 0.43 0.43
20260509170446 -67 222 0.0 0.0 0.03 0.43 0.43
20260509165933 -67 222 0.0 0.0 0.03 0.43 0.43
20260509165440 -67 222 0.0 0.0 0.03 0.43 0.43
20260509164928 -67 222 0.0 0.0 0.05 0.43 0.43
20260509164435 -67 222 0.0 0.0 0.05 0.43 0.43
20260509163942 -67 222 0.0 0.0 0.05 0.43 0.43
20260509163450 -67 222 0.0 0.0 0.05 0.43 0.43
20260509162936 -67 222 0.0 0.0 0.08 0.43 0.43
20260509162438 -67 209 0.0 0.0 0.08 0.43 0.43
20260509161927 -67 204 0.0 4.8 0.10 0.43 0.43
20260509161434 -67 192 0.0 6.4 0.10 0.43 0.43
20260509160941 -67 195 0.0 6.4 0.10 0.56 0.43
20260509160427 -67 169 0.0 11.3 0.08 0.53 0.41
20260509155933 -67 166 0.0 11.3 0.10 0.53 0.41
20260509155440 -67 147 0.0 1.6 0.10 0.53 0.41
20260509154948 -67 214 0.0 0.0 0.10 0.51 0.38
20260509154502 -67 217 0.0 3.2 0.10 0.51 0.38
20260509153928 -67 217 0.0 3.2 0.10 0.51 0.38
20260509153434 -67 241 0.0 4.8 0.13 0.51 0.38
20260509152943 -67 241 0.0 4.8 0.10 0.48 0.36
20260509152429 -67 247 0.0 3.2 0.13 0.48 0.36
20260509152001 -67 248 0.0 4.8 0.10 0.46 0.33
20260509151429 -67 250 0.0 4.8 0.13 0.46 0.33
20260509150935 -67 236 1.6 4.8 0.13 0.56 0.33
20260509150438 -67 228 0.0 4.8 0.10 0.53 0.30
20260509145923 -67 274 0.0 4.8 0.13 0.53 0.30
20260509145430 -67 293 0.0 0.0 0.13 0.53 0.30
20260509144958 -67 303 0.0 3.2 0.10 0.51 0.28
20260509144447 -67 305 0.0 3.2 0.13 0.51 0.28
20260509143929 -67 326 0.0 0.0 0.10 0.48 0.25
20260509143436 -67 326 0.0 0.0 0.10 0.48 0.25
20260509142943 -67 327 0.0 0.0 0.13 0.48 0.25
20260509142430 -67 332 0.0 0.0 0.10 0.46 0.23
20260509141933 -67 334 0.0 0.0 0.10 0.46 0.23
20260509141443 -67 334 0.0 0.0 0.08 0.43 0.20
20260509140929 -67 334 0.0 0.0 0.10 0.43 0.20
20260509140435 -67 335 0.0 0.0 0.08 0.41 0.18
20260509135943 -67 335 0.0 0.0 0.10 0.41 0.18
20260509135450 -67 335 0.0 0.0 0.10 0.41 0.18
20260509134934 -67 335 0.0 0.0 0.10 0.41 0.18
20260509134442 -67 335 0.0 0.0 0.08 0.38 0.15
20260509133928 -67 335 0.0 0.0 0.10 0.38 0.15
20260509133434 -67 334 0.0 0.0 0.08 0.36 0.13
20260509132941 -67 333 0.0 0.0 0.08 0.36 0.13
20260509132449 -67 333 0.0 0.0 0.08 0.36 0.13
20260509131932 -67 332 0.0 0.0 0.10 0.36 0.13
20260509131438 -67 332 0.0 1.6 0.08 0.33 0.10
20260509130944 -67 332 0.0 1.6 0.08 0.33 0.10
20260509130450 -67 332 0.0 0.0 0.08 0.33 0.10
20260509125936 -67 332 0.0 0.0 0.05 0.30 0.08
20260509125442 -67 332 0.0 0.0 0.05 0.30 0.08
20260509124929 -67 332 0.0 0.0 0.05 0.30 0.08
20260509124436 -67 332 0.0 0.0 0.08 0.30 0.08
20260509123941 -67 332 0.0 0.0 0.05 0.28 0.05
20260509123428 -17 332 0.0 0.0 0.05 0.28 0.05
20260509122932 -17 332 0.0 0.0 0.05 0.28 0.05
20260509122438 -17 332 0.0 0.0 0.05 0.28 0.05
20260509121927 -17 332 0.0 0.0 0.03 0.25 0.03
20260509121434 -17 332 0.0 0.0 0.03 0.25 0.03
20260509121001 -17 332 0.0 0.0 0.03 0.25 0.03
20260509120427 -17 332 0.0 0.0 0.03 0.25 0.03
20260509115935 -17 332 0.0 0.0 0.03 0.25 0.03
20260509115442 -17 332 0.0 0.0 0.03 0.25 0.03
20260509114929 -17 332 0.0 0.0 0.03 0.25 0.03
20260509114437 -17 332 0.0 0.0 0.00 0.23 0.00
20260509113944 -17 332 0.0 0.0 0.00 0.23 0.00
20260509113451 -17 332 0.0 0.0 0.00 0.23 0.00
20260509112937 -17 332 0.0 0.0 0.00 0.23 0.00
20260509112444 -17 332 0.0 0.0 0.00 0.23 0.00
20260509111931 -17 332 0.0 0.0 0.00 0.23 0.00
20260509111440 -17 332 0.0 0.0 0.00 0.23 0.00
20260509110927 -17 332 0.0 0.0 0.00 0.23 0.00
20260509110429 -17 332 0.0 0.0 0.00 0.23 0.00
20260509105936 -17 332 0.0 0.0 0.00 0.23 0.00
20260509105425 -17 332 0.0 0.0 0.00 0.23 0.00
20260509104932 -17 332 0.0 0.0 0.00 0.23 0.00
20260509104441 -17 332 0.0 0.0 0.00 0.23 0.00
20260509103927 -17 332 0.0 0.0 0.00 0.23 0.00
20260509103433 -17 332 0.0 0.0 0.00 0.23 0.00
20260509102942 -17 332 0.0 0.0 0.00 0.23 0.00
20260509102429 -17 332 0.0 0.0 0.00 0.23 0.00
20260509101935 -17 333 0.0 0.0 0.00 0.23 0.00
20260509101443 -17 333 0.0 0.0 0.00 0.23 0.00
20260509100929 -17 333 0.0 0.0 0.00 0.23 0.00
20260509100436 -17 334 0.0 0.0 0.00 0.23 0.00
20260509095943 -17 334 0.0 0.0 0.00 0.23 0.00
20260509095430 -17 334 0.0 0.0 0.00 0.23 0.00
20260509094939 -17 335 0.0 0.0 0.00 0.23 0.00
20260509094447 -17 335 0.0 0.0 0.00 0.23 0.00
20260509093949 -17 335 0.0 0.0 0.00 0.23 0.00
20260509093456 -17 335 0.0 0.0 0.00 0.23 0.00
20260509092941 -17 335 0.0 0.0 0.00 0.23 0.00
20260509092428 -17 335 0.0 0.0 0.00 0.23 0.00
20260509091933 -17 335 0.0 0.0 0.00 0.23 0.00
20260509091442 -17 335 0.0 0.0 0.00 0.23 0.00
20260509090927 -17 335 0.0 0.0 0.00 0.25 0.00
20260509090436 -17 335 0.0 0.0 0.00 0.25 0.00
20260509085943 -17 335 0.0 0.0 0.00 0.25 0.00
20260509085429 -17 335 0.0 0.0 0.00 0.25 0.00
20260509084934 -17 335 0.0 0.0 0.00 0.25 0.00
20260509084443 -17 335 0.0 0.0 0.00 0.25 0.00
20260509083929 -17 335 0.0 0.0 0.00 0.25 0.00
20260509083437 -17 335 0.0 0.0 0.00 0.25 0.00
20260509082943 -17 335 0.0 0.0 0.00 0.25 0.00
20260509082430 -17 335 0.0 0.0 0.00 0.25 0.00
20260509081954 -17 335 0.0 0.0 0.00 0.25 0.00
20260509081442 -17 335 0.0 0.0 0.00 0.25 0.00
20260509080928 -17 335 0.0 0.0 0.00 0.25 0.00
20260509080436 -17 335 0.0 0.0 0.00 0.25 0.00
20260509075924 -17 335 0.0 0.0 0.00 0.25 0.00
20260509075433 -17 335 0.0 0.0 0.00 0.25 0.00
20260509074940 -17 335 0.0 0.0 0.00 0.25 0.00
20260509074429 -17 335 0.0 0.0 0.00 0.25 0.00
20260509073934 -17 335 0.0 0.0 0.00 0.25 0.00
20260509073442 -17 335 0.0 0.0 0.00 0.25 0.00
20260509072928 -17 335 0.0 0.0 0.00 0.25 0.00
20260509072434 -17 335 0.0 0.0 0.00 0.25 0.00
20260509071941 -17 335 0.0 0.0 0.00 0.25 0.00
20260509071430 -17 335 0.0 0.0 0.00 0.25 0.00
20260509071003 -17 335 0.0 0.0 0.00 0.25 0.00
20260509070429 -17 335 0.0 0.0 0.00 0.25 0.00
20260509070003 -17 335 0.0 0.0 0.00 0.25 0.00
20260509065429 -17 335 0.0 0.0 0.00 0.25 0.00
20260509064931 -17 335 0.0 0.0 0.00 0.25 0.00
20260509064442 -17 335 0.0 0.0 0.00 0.25 0.00
20260509063947 -17 335 0.0 0.0 0.00 0.25 0.00
20260509063429 -17 335 0.0 0.0 0.00 0.25 0.00
20260509062956 -17 335 0.0 0.0 0.00 0.25 0.00
20260509062441 -17 335 0.0 0.0 0.00 0.25 0.00
20260509061928 -17 335 0.0 0.0 0.00 0.25 0.00
20260509061437 -67 335 0.0 0.0 0.00 0.25 0.00
20260509060945 -17 335 0.0 0.0 0.00 0.25 0.00
20260509060431 -17 335 0.0 0.0 0.00 0.25 0.00
20260509055938 -17 335 0.0 0.0 0.00 0.25 0.00
20260509055423 -17 335 0.0 0.0 0.00 0.25 0.00
20260509054959 -17 335 0.0 0.0 0.00 0.25 0.00
20260509054444 -17 335 0.0 0.0 0.00 0.25 0.00
20260509053931 -17 335 0.0 0.0 0.00 0.25 0.00
20260509053434 -17 335 0.0 0.0 0.00 0.25 0.00
20260509052941 -17 335 0.0 0.0 0.00 0.25 0.00
20260509052429 -17 335 0.0 0.0 0.00 0.25 0.00
20260509051956 -17 335 0.0 0.0 0.00 0.25 0.00
20260509051425 -17 335 0.0 0.0 0.00 0.25 0.00
20260509050950 -17 335 0.0 0.0 0.00 0.25 0.00
20260509050435 -17 335 0.0 0.0 0.00 0.25 0.00
20260509045944 -17 335 0.0 0.0 0.00 0.25 0.00
20260509045450 -17 335 0.0 0.0 0.00 0.25 0.00
20260509044934 -17 335 0.0 0.0 0.00 0.25 0.00
20260509044442 -17 335 0.0 0.0 0.00 0.25 0.00
20260509043927 -17 335 0.0 0.0 0.00 0.25 0.00
20260509043435 -17 335 0.0 0.0 0.00 0.25 0.00
20260509042942 -17 335 0.0 0.0 0.00 0.25 0.00
20260509042429 -67 335 0.0 0.0 0.00 0.25 0.00
20260509041954 -17 335 0.0 0.0 0.00 0.25 0.00
20260509041441 -17 335 0.0 0.0 0.00 0.25 0.00
20260509040928 -17 335 0.0 0.0 0.00 0.25 0.25
20260509040457 -17 335 0.0 0.0 0.00 0.25 0.25
20260509035938 -17 335 0.0 0.0 0.00 0.25 0.25
20260509035444 -17 335 0.0 0.0 0.00 0.25 0.25
20260509034931 -17 335 0.0 0.0 0.00 0.25 0.25
20260509034440 -17 335 0.0 0.0 0.00 0.25 0.25
20260509033945 -17 335 0.0 0.0 0.00 0.25 0.25
20260509033452 -17 336 0.0 0.0 0.00 0.25 0.25
20260509032938 -17 336 0.0 0.0 0.00 0.25 0.25
20260509032445 -17 336 0.0 0.0 0.00 0.25 0.25
20260509031952 -17 336 0.0 0.0 0.00 0.25 0.25
20260509031454 -17 336 0.0 0.0 0.00 0.25 0.25
20260509030940 -17 336 0.0 0.0 0.00 0.25 0.25
20260509030428 -17 336 0.0 0.0 0.00 0.25 0.25
20260509025935 -17 336 0.0 0.0 0.00 0.25 0.25
20260509025442 -17 336 0.0 0.0 0.00 0.25 0.25
20260509024928 -17 336 0.0 0.0 0.00 0.25 0.25
20260509024435 -17 336 0.0 0.0 0.00 0.25 0.25
20260509023943 -17 336 0.0 0.0 0.00 0.25 0.25
20260509023450 -17 336 0.0 0.0 0.00 0.25 0.25
20260509022936 -17 336 0.0 0.0 0.00 0.25 0.25
20260509022444 -17 336 0.0 0.0 0.00 0.25 0.25
20260509021930 -17 336 0.0 0.0 0.00 0.25 0.25
20260509021440 -17 336 0.0 0.0 0.00 0.25 0.25
20260509020928 -17 336 0.0 0.0 0.00 0.25 0.25
20260509020503 -17 336 0.0 0.0 0.00 0.25 0.25
20260509015946 -17 336 0.0 0.0 0.00 0.25 0.25
20260509015430 -17 336 0.0 0.0 0.00 0.25 0.25
20260509014936 -17 336 0.0 0.0 0.00 0.25 0.25
20260509014424 -17 336 0.0 0.0 0.00 0.25 0.25
20260509013928 -17 336 0.0 0.0 0.00 0.25 0.25
20260509013436 -17 336 0.0 0.0 0.00 0.25 0.25
20260509012945 -17 336 0.0 0.0 0.00 0.25 0.25
20260509012457 -17 336 0.0 0.0 0.00 0.25 0.25
20260509012002 -17 336 0.0 0.0 0.00 0.25 0.25
20260509011450 -17 336 0.0 0.0 0.00 0.25 0.25
20260509010936 -17 336 0.0 0.0 0.00 0.25 0.25
20260509010443 -17 336 0.0 0.0 0.00 0.25 0.25